Other Public Products
Issued by NWS Grand Forks, ND

Home | Current Version | Previous Version | Graphics & Text | Print | Product List | Glossary On
Versions: 1 2 3 4 5 6 7 8 9 10 11 12 13 14 15 16 17 18 19 20 21 22 23 24 25 26 27 28 29 30 31 32 33 34 35 36 37 38 39 40 41 42 43 44 45 46 47 48 49 50
856
FPUS83 KFGF 070331
OPUFGF
PRAIRIE TO PINES WEATHER ROUNDUP
NATIONAL WEATHER SERVICE EASTERN NORTH DAKOTA/GRAND FORKS ND
900 PM CST SAT FEB 06 2016

 **SATELLITE DATA USED TO AUGMENT SKY COVER AT AUTOMATED STATIONS**
 *****  WEATHER ACROSS EASTERN NORTH DAKOTA  *****

CITY           SKY/WX    TMP DP  RH WIND       PRES   REMARKS
GRAND FORKS    PTCLDY    40  31  70 SW16      29.51F
GRAND FORKS AF PTCLDY    40  31  71 SW15      29.51F
GRAND CITY NWS   N/A     36 N/A N/A W14         N/A
BUXTON           N/A     37  36  96 SW12        N/A
DEVILS LAKE    CLOUDY    37  32  81 W24       29.51
FARGO          CLEAR     39  33  79 SW15      29.61S
WAHPETON ARPT  CLOUDY    34  32  93 SW3       29.65F
$$

 *****  WEATHER ACROSS CENTRAL AND WESTERN NORTH DAKOTA  *****

CITY           SKY/WX    TMP DP  RH WIND       PRES   REMARKS
JAMESTOWN      PTCLDY    40  29  64 SW18      29.60F
BISMARCK       CLOUDY    46  30  53 NW22G35   29.73R
MINOT          CLOUDY    40  31  70 W24G31    29.61R
MINOT AFB      CLOUDY    37  37  99 W22G28    29.59R
GARRISON         N/A     39  32  76 W26G41    29.66R
WILLISTON      CLEAR     38  24  57 W18G28    29.80R
DICKINSON      PTCLDY    36  24  62 W31G43    29.80R
HETTINGER      CLEAR     38  23  55 W31G43    29.87R
$$

 *****  OTHER OBSERVATIONS NORTHEAST NORTH DAKOTA  *****

CITY           SKY/WX    TMP DP  RH WIND       PRES   REMARKS
WALHALLA       FAIR      39  32  75 W12G17    29.42F
LANGDON        FAIR      34  32  93 W22       29.44F WCI  22
CAVALIER       FAIR      39  32  75 W10       29.43F
GRAFTON        FAIR      36  32  87 SW13G21   29.48F
CANDO          CLOUDY    37  32  81 W26G33    29.51R
FORT TOTTEN      N/A     40  28  62 W13       29.95S
ROLLA          CLOUDY    36  32  87 W18G26    29.46R
RUGBY          LGT RAIN  36  34  93 W28G37    29.52S
 ***** THE ABOVE OBSERVATIONS ARE NON NWS ARE NOT QUALITY
        CONTROLLED AND MAY MIS-REPORT RAIN FOR SNOW...
$$

 *****  OTHER OBSERVATIONS SOUTHEAST NORTH DAKOTA *****

CITY           SKY/WX    TMP DP  RH WIND       PRES   REMARKS
COOPERSTOWN    NOT AVBL
VALLEY CITY    MOCLDY    37  36  93 SW16G24   29.61F
OAKES          FAIR      32  32 100 S10       29.67F WCI  24
GWINNER          N/A     36  34  93 SW15      29.66F
SHEYENNE NWR     N/A     35  33  91 SW10      29.95S
BUFFALO          N/A     36  31  84 SW14        N/A
WYNDMERE         N/A     36  34  93 SW7         N/A
 ***** THE ABOVE OBSERVATIONS ARE NON NWS ARE NOT QUALITY
       CONTROLLED AND MAY MIS-REPORT RAIN FOR SNOW...
$$

  *****  WEATHER ACROSS NORTHERN MINNESOTA  *****

CITY           SKY/WX    TMP DP  RH WIND       PRES   REMARKS
FLAG ISLAND    CLOUDY    30  28  93 SE9       29.46F WCI  22
WARROAD        CLOUDY    36  30  80 S7        29.46F
ROSEAU         CLOUDY    36  30  80 SW15      29.45F
HALLOCK        CLOUDY    36  30  80 SW12      29.44F
THF RVR FALLS  CLOUDY    37  30  75 SW10      29.52F
HALSTAD          N/A     37  32  82 SW15        N/A
FOSSTON        LGT RAIN  34  30  86 S13       29.56S WCI  25
BAUDETTE       CLOUDY    33  26  75 S7        29.50F
WASKISH        LGT RAIN  37  32  81 S9        29.52F
CROOKSTON      MOCLDY    36  34  93 SW8       29.53F
$$
  *****  WEATHER ACROSS CENTRAL AND WEST MINNESOTA  *****

CITY           SKY/WX    TMP DP  RH WIND       PRES   REMARKS
BEMIDJI        CLOUDY    36  31  82 S8        29.55F
PARK RAPIDS    CLOUDY    36  30  79 SW9       29.60F
WADENA         CLOUDY    36  34  93 SW13      29.63F
DETROIT LAKES  PTCLDY    36  34  93 SW13      29.63R
MOORHEAD       CLEAR     36  34  93 S9        29.62F
FERGUS FALLS   PTCLDY    34  34 100 SW7       29.68F
ELBOW LAKE     FAIR      33  32  96 SW8       29.67F
MORRIS MN      CLOUDY    34  30  86 SW10      29.70S
STAPLES        DRIZZLE   36  34  93 SW9       29.63F
WHEATON        CLOUDY    37  34  87 S14       29.71F
$$
  *****  WEATHER ELSEWHERE ACROSS MINNESOTA  *****

CITY           SKY/WX    TMP DP  RH WIND       PRES   REMARKS
DULUTH         LGT SNOW  30  27  88 S12G21    29.66F FOG     WCI  20
INTRNTL FALLS  CLOUDY    32  28  85 S8        29.55F WCI  25
ELY            LGT SNOW  28  28 100 S8        29.63F WCI  20
CLOQUET        FLURRIES  32  27  80 S10       29.67F WCI  24
BRAINERD       MOCLDY    34  31  88 S13       29.67F WCI  25
HIBBING        CLOUDY    30  28  92 S8        29.61F WCI  22
ALEXANDRIA     CLOUDY    34  30  85 S13       29.67F WCI  25
SAINT CLOUD    CLOUDY    33  30  88 S7        29.76S
MINNEAPOLIS    LGT RAIN  35  28  75 S10       29.82F
$$

  *****  WEATHER ACROSS SOUTH DAKOTA  *****

CITY           SKY/WX    TMP DP  RH WIND       PRES   REMARKS
SIOUX FALLS    CLOUDY    33  26  75 SW6       29.84R
BROOKINGS      CLOUDY    35  30  82 S9        29.77F
WATERTOWN      CLOUDY    36  29  75 SW14      29.75R
HURON          CLOUDY    40  30  67 W16       29.80S
SISSETON         N/A     38  31  76 SW9       29.69F
ABERDEEN       PTCLDY    39  28  64 SW12      29.73R
MITCHELL       CLOUDY    40  31  70 W14       29.84S
PIERRE         CLOUDY    42  28  57 W18G26    29.86R
MOBRIDGE       CLEAR     41  26  55 W12       29.76R
RAPID CITY     MOCLDY    41  21  44 NW18      29.98R
$$

  *****  SOME WEATHER IN NEARBY STATES *****

CITY           SKY/WX    TMP DP  RH WIND       PRES   REMARKS
GLASGOW MT     LGT SNOW  33  30  88 W26G48    29.97R FOG     WCI  20
GREAT FALLS MT PTCLDY    31  16  54 W13       30.17R WCI  21
CHEYENNE WY    CLOUDY    40  15  36 W18G25    30.09S
SCOTTSBLUFF NE CLOUDY    40  25  55 NW23G33   30.04R
OMAHA NE       CLOUDY    39  26  59 S9        29.97F
DES MOINES IA  CLOUDY    36  29  75 S9        30.00F
DAVENPORT IA   PTCLDY    29  26  89 S7        30.07F WCI  22
CHICAGO IL     CLEAR     33  27  78 S6        30.10F
EAU CLAIRE WI  CLOUDY    31  23  72 S13       29.87F WCI  21
LA CROSSE WI   CLOUDY    30  25  81 S13       29.94F WCI  20
$$

  *****  SOME NATIONAL WEATHER *****

CITY           SKY/WX    TMP DP  RH WIND       PRES   REMARKS
LA GUARDIA NY  PTCLDY    39  22  50 S8        30.29S
RALEIGH NC     CLOUDY    39  23  52 NE6       30.27F
ATLANTA GA     PTCLDY    42  19  39 NW5       30.21F
NEW ORLEANS LA PTCLDY    47  28  47 NW3       30.30R
OKLAHOMA CITY  CLEAR     34  26  72 S7        30.26S
ALBUQUERQUE NM CLEAR     42  13  30 N18G24    30.36S
SALT LAKE CITY PTCLDY    30  24  78 CALM      30.46S
LOS ANGELES CA CLEAR     67  31  26 CALM      30.15R
BOISE ID       MOCLDY    37  32  82 W6        30.44R
SEATTLE WA     PTCLDY    44  38  79 CALM      30.47R
$$

*** WEATHER ACROSS MANITOBA...SASKATCHEWAN AND ONTARIO ***
                ***ONTARIO***

CITY           SKY/WX    TMP DP  RH WIND       PRES   REMARKS
GERALDTON      MOCLDY    -2  -9  71 E9        29.96F WCI -18
THUNDER BAY    LGT SNOW  21  21 100 E10       29.81F WCI  10
SIOUX LOOKOUT  LGT SNOW  16  14  93 SE9       29.65F DRFTSNOWWCI   4
TORONTO        MOCLDY    30  18  59 SW8       30.12F WCI  23
BIG TROUT LK   CLEAR    -18 -26  69 SE8       29.99F WCI -37
PICKLE LAKE    NOT AVBL
DRYDEN         LGT SNOW  23  19  86 E14       29.58F WCI  11
KENORA         LGT SNOW  25  25 100 SE13      29.49F VSB 1   WCI  13
$$
                *** MANITOBA***

CITY           SKY/WX    TMP DP  RH WIND       PRES   REMARKS
BRANDON        MOCLDY    36  30  80 W21       29.40S
DAUPHIN        PTCLDY    23  21  93 NW10      29.39R WCI  12
ISLAND LAKE    FLURRIES   0  -6  78 E5G20     29.72F WCI -10
PILOT MOUND      N/A     37  32  81 W10G17      N/A
THE PAS        LGT SNOW  12   9  85 E7        29.50R WCI   2
THOMPSON       LGT SNOW  -6 -11  77 E9G17     29.71R DRFTSNOWWCI -22
WINNIPEG       MOCLDY    30  27  86 S10       29.39F WCI  21
LYNN LAKE      LGT SNOW  -4  -9  77 E9        29.63R WCI -20
CHURCHILL      PTCLDY   -29 -36  68 SE8       30.10F WCI -50
GILLAM         CLOUDY   -18 -26  69 E8        29.92F WCI -37
$$
                ***SASKATCHEWAN***

CITY           SKY/WX    TMP DP  RH WIND       PRES   REMARKS
ESTEVAN        PTCLDY    36  27  69 NW30G39   29.65R
KINDERSLEY     CLOUDY    34  21  60 NW25G38   29.80R WCI  21
LLOYDMINSTER   FLURRIES  32  27  80 NW30G41   29.75R WCI  18
PRINCE ALBERT  CLOUDY    39  25  56 W20G25    29.48S
REGINA         PTCLDY    36  23  60 NW30G40   29.67R
YORKTON        CLOUDY    36  32  87 W21       29.48R   C1F1C2F2C3F3C4F4C5F5C6F6C7F7C8F8C9F9CaFaCbFbCcFcCdFdCe!



USA.gov is the U.S. government's official web portal to all federal, state and local government web resources and services.